TimeAKST,TemperatureF,Dew PointF,Humidity,Sea Level PressureIn,VisibilityMPH,Wind Direction,Wind SpeedMPH,Gust SpeedMPH,PrecipitationIn,Events,Conditions,WindDirDegrees,DateUTC
12:54 AM,10.9,5.0,77,29.56,3.0,NW,11.5,18.4,0.00,Snow,Light Snow,320,2012-12-03 09:54:00
1:00 AM,10.4,5.0,79,29.55,2.5,NW,11.5,19.6,0.00,Snow,Light Snow,320,2012-12-03 10:00:00
1:14 AM,10.4,5.0,79,29.55,4.0,NW,10.4,17.3,0.00,Snow,Light Snow,320,2012-12-03 10:14:00
1:54 AM,10.9,5.0,77,29.57,2.0,NW,12.7,18.4,0.00,Snow,Light Snow,320,2012-12-03 10:54:00
2:22 AM,10.4,5.0,79,29.57,3.0,NW,11.5,18.4,0.00,Snow,Light Snow,320,2012-12-03 11:22:00
2:30 AM,10.4,5.0,79,29.57,2.0,NW,11.5,19.6,0.00,Snow,Light Snow,310,2012-12-03 11:30:00
2:40 AM,10.4,5.0,79,29.57,1.8,NW,12.7,19.6,0.00,Snow,Light Snow,320,2012-12-03 11:40:00
2:54 AM,10.9,5.0,77,29.58,3.0,NW,13.8,19.6,0.00,Snow,Light Snow,320,2012-12-03 11:54:00
3:38 AM,10.4,5.0,79,29.57,2.5,NW,12.7,19.6,0.00,Snow,Light Snow,320,2012-12-03 12:38:00
3:54 AM,10.9,5.0,77,29.59,2.5,NNW,10.4,-,0.00,Snow,Light Snow,330,2012-12-03 12:54:00
4:06 AM,10.4,5.0,79,29.58,1.5,NNW,12.7,19.6,0.00,Snow,Light Snow,330,2012-12-03 13:06:00
4:36 AM,10.4,5.0,79,29.59,2.0,NW,15.0,19.6,0.00,Snow,Light Snow,320,2012-12-03 13:36:00
4:46 AM,10.4,5.0,79,29.59,1.8,NW,10.4,20.7,0.00,Snow,Light Snow,320,2012-12-03 13:46:00
4:54 AM,10.9,5.0,77,29.60,1.2,NW,10.4,17.3,0.00,Snow,Light Snow,310,2012-12-03 13:54:00
6:01 AM,10.4,5.0,79,29.60,2.5,NW,10.4,18.4,0.00,Snow,Light Snow,310,2012-12-03 15:01:00
6:19 AM,10.4,3.2,73,29.60,1.8,NW,11.5,20.7,0.00,Snow,Light Snow,320,2012-12-03 15:19:00
6:26 AM,10.4,5.0,79,29.61,2.0,Variable,5.8,17.3,0.00,Snow,Light Snow,0,2012-12-03 15:26:00
6:54 AM,10.0,5.0,80,29.62,1.2,NW,12.7,18.4,0.00,Snow,Light Snow,310,2012-12-03 15:54:00
7:26 AM,10.4,5.0,79,29.62,2.0,Variable,5.8,-,0.00,Snow,Light Snow,0,2012-12-03 16:26:00
7:39 AM,10.4,3.2,73,29.63,2.5,NW,10.4,19.6,0.00,Snow,Light Snow,320,2012-12-03 16:39:00
7:46 AM,10.4,3.2,73,29.63,4.0,NW,8.1,20.7,0.00,Snow,Light Snow,320,2012-12-03 16:46:00
7:54 AM,10.0,3.9,76,29.64,6.0,NW,8.1,19.6,0.00,Snow,Light Snow,310,2012-12-03 16:54:00
8:54 AM,10.0,3.0,73,29.66,8.0,NW,5.8,-,0.00,Snow,Light Snow,320,2012-12-03 17:54:00
9:54 AM,10.0,1.9,70,29.68,8.0,NW,6.9,-,0.00,Snow,Light Snow,320,2012-12-03 18:54:00
10:54 AM,10.0,3.0,73,29.69,4.0,WNW,10.4,18.4,0.00,Snow,Light Snow,300,2012-12-03 19:54:00
11:36 AM,10.4,3.2,73,29.69,2.5,NW,11.5,18.4,0.00,Snow,Light Snow,310,2012-12-03 20:36:00
11:45 AM,10.4,3.2,73,29.70,4.0,WNW,13.8,19.6,0.00,Snow,Light Snow,290,2012-12-03 20:45:00
11:54 AM,10.0,3.9,76,29.71,3.0,WNW,11.5,-,0.00,Snow,Light Snow,300,2012-12-03 20:54:00
12:02 PM,10.4,3.2,73,29.70,2.0,NW,10.4,18.4,0.00,Snow,Light Snow,310,2012-12-03 21:02:00
12:49 PM,10.4,3.2,73,29.71,1.8,NW,10.4,19.6,0.00,Snow,Light Snow,310,2012-12-03 21:49:00
12:54 PM,10.0,5.0,80,29.72,1.8,WNW,11.5,19.6,0.00,Snow,Light Snow,290,2012-12-03 21:54:00
1:34 PM,10.4,3.2,73,29.71,2.5,WNW,13.8,19.6,0.00,Snow,Light Snow,300,2012-12-03 22:34:00
1:41 PM,10.4,3.2,73,29.72,3.0,NW,9.2,19.6,0.00,Snow,Light Snow,310,2012-12-03 22:41:00
1:54 PM,10.0,3.9,76,29.73,2.5,WNW,11.5,21.9,0.00,Snow,Light Snow,300,2012-12-03 22:54:00
2:04 PM,10.4,3.2,73,29.72,3.0,WNW,12.7,17.3,0.00,Snow,Light Snow,300,2012-12-03 23:04:00
2:11 PM,10.4,3.2,73,29.72,2.0,WNW,11.5,-,0.00,Snow,Light Snow,300,2012-12-03 23:11:00
2:19 PM,10.4,3.2,73,29.71,1.5,WNW,9.2,-,0.00,Snow,Light Snow,300,2012-12-03 23:19:00
2:29 PM,10.4,3.2,73,29.72,3.0,NW,9.2,19.6,0.00,Snow,Light Snow,310,2012-12-03 23:29:00
2:52 PM,10.4,3.2,73,29.71,4.0,WNW,12.7,19.6,0.00,Snow,Light Snow,300,2012-12-03 23:52:00
2:54 PM,10.0,3.9,76,29.72,5.0,WNW,10.4,19.6,0.00,Snow,Light Snow,300,2012-12-03 23:54:00
3:54 PM,10.0,1.9,70,29.71,4.0,WNW,13.8,29.9,0.00,Snow,Light Snow,300,2012-12-04 00:54:00
4:54 PM,9.0,1.9,73,29.72,3.0,WNW,10.4,25.3,0.00,Snow,Light Snow,300,2012-12-04 01:54:00
5:54 PM,9.0,-0.0,67,29.71,4.0,WNW,15.0,24.2,0.00,Snow,Light Snow,300,2012-12-04 02:54:00
6:11 PM,8.6,1.4,73,29.70,3.0,NW,12.7,26.5,0.00,Snow,Light Snow,320,2012-12-04 03:11:00
6:28 PM,8.6,-0.4,67,29.69,2.5,WNW,15.0,24.2,0.00,Snow,Light Snow,300,2012-12-04 03:28:00
6:41 PM,8.6,-0.4,67,29.70,3.0,NW,13.8,23.0,0.00,Snow,Light Snow,320,2012-12-04 03:41:00
6:54 PM,8.1,1.0,73,29.70,3.0,WNW,13.8,21.9,0.00,Snow,Light Snow,300,2012-12-04 03:54:00
7:54 PM,8.1,1.0,73,29.69,5.0,NW,12.7,21.9,0.00,Snow,Light Snow,310,2012-12-04 04:54:00
8:54 PM,8.1,-0.0,70,29.66,8.0,NW,12.7,27.6,0.00,Snow,Light Snow,320,2012-12-04 05:54:00
9:54 PM,7.0,-2.9,64,29.65,10.0,NW,16.1,26.5,0.00,,Mostly Cloudy,310,2012-12-04 06:54:00
10:54 PM,7.0,-4.0,61,29.62,10.0,NW,17.3,26.5,0.00,,Clear,320,2012-12-04 07:54:00
11:54 PM,7.0,-5.1,58,29.59,10.0,NW,17.3,25.3,N/A,,Overcast,320,2012-12-04 08:54:00